TimeEST,TemperatureF,Dew PointF,Humidity,Sea Level PressureIn,VisibilityMPH,Wind Direction,Wind SpeedMPH,Gust SpeedMPH,PrecipitationIn,Events,Conditions,WindDirDegrees,DateUTC
12:15 AM,41.5,12.6,31,30.25,10.0,West,3.5,-,N/A,,Clear,270,2013-11-15 05:15:00
12:35 AM,41.0,12.2,31,30.26,10.0,Calm,Calm,-,N/A,,Clear,0,2013-11-15 05:35:00
12:55 AM,41.5,12.0,30,30.25,10.0,SSW,3.5,-,N/A,,Clear,210,2013-11-15 05:55:00
1:15 AM,38.7,13.8,36,30.24,10.0,SSE,5.8,-,N/A,,Clear,150,2013-11-15 06:15:00
1:55 AM,41.0,14.0,33,30.24,10.0,South,5.8,-,N/A,,Clear,170,2013-11-15 06:55:00
2:15 AM,41.5,14.0,33,30.24,10.0,SSW,5.8,-,N/A,,Clear,200,2013-11-15 07:15:00
2:35 AM,39.6,14.9,37,30.23,10.0,Calm,Calm,-,N/A,,Clear,0,2013-11-15 07:35:00
2:55 AM,39.9,15.3,37,30.24,10.0,SSW,4.6,-,N/A,,Clear,200,2013-11-15 07:55:00
3:15 AM,40.1,14.5,35,30.24,10.0,South,4.6,-,N/A,,Clear,170,2013-11-15 08:15:00
3:35 AM,40.5,14.7,35,30.23,10.0,SSW,5.8,-,N/A,,Clear,200,2013-11-15 08:35:00
3:55 AM,41.9,13.5,32,30.23,10.0,SSW,5.8,-,N/A,,Clear,210,2013-11-15 08:55:00
4:15 AM,43.0,13.5,30,30.23,10.0,SW,5.8,-,N/A,,Clear,220,2013-11-15 09:15:00
4:35 AM,42.8,13.3,30,30.23,10.0,South,4.6,-,N/A,,Clear,190,2013-11-15 09:35:00
4:55 AM,40.8,14.5,34,30.23,10.0,South,4.6,-,N/A,,Clear,180,2013-11-15 09:55:00
5:15 AM,41.0,14.4,34,30.23,10.0,South,4.6,-,N/A,,Clear,170,2013-11-15 10:15:00
5:35 AM,41.7,14.0,32,30.24,10.0,South,5.8,-,N/A,,Clear,170,2013-11-15 10:35:00
5:55 AM,41.9,13.8,32,30.24,10.0,SSE,8.1,-,N/A,,Clear,160,2013-11-15 10:55:00
6:15 AM,39.9,14.7,36,30.24,10.0,South,5.8,-,N/A,,Clear,180,2013-11-15 11:15:00
6:35 AM,41.9,14.0,32,30.24,10.0,South,5.8,-,N/A,,Clear,170,2013-11-15 11:35:00
6:55 AM,43.2,14.5,31,30.25,10.0,South,4.6,-,N/A,,Clear,180,2013-11-15 11:55:00
7:15 AM,43.2,14.4,31,30.25,10.0,South,3.5,-,N/A,,Clear,180,2013-11-15 12:15:00
7:35 AM,43.2,14.7,32,30.26,10.0,Calm,Calm,-,N/A,,Clear,0,2013-11-15 12:35:00
7:55 AM,40.8,15.8,36,30.26,10.0,Calm,Calm,-,N/A,,Clear,0,2013-11-15 12:55:00
8:15 AM,43.9,17.1,34,30.27,10.0,Calm,Calm,-,N/A,,Clear,0,2013-11-15 13:15:00
8:35 AM,46.0,16.2,30,30.27,10.0,Calm,Calm,-,N/A,,Clear,0,2013-11-15 13:35:00
8:55 AM,47.5,16.7,29,30.26,10.0,WSW,3.5,-,N/A,,Clear,250,2013-11-15 13:55:00
9:15 AM,49.1,18.5,30,30.26,10.0,Calm,Calm,-,N/A,,Clear,0,2013-11-15 14:15:00
9:35 AM,50.7,21.6,32,30.27,10.0,West,4.6,-,N/A,,Clear,260,2013-11-15 14:35:00
9:55 AM,47.3,18.0,31,30.27,10.0,NW,4.6,-,N/A,,Clear,310,2013-11-15 14:55:00
10:15 AM,49.6,18.9,30,30.27,10.0,West,4.6,-,N/A,,Clear,280,2013-11-15 15:15:00
10:35 AM,51.1,18.7,28,30.27,10.0,WNW,3.5,-,N/A,,Clear,300,2013-11-15 15:35:00
10:55 AM,52.7,20.1,28,30.27,10.0,Calm,Calm,-,N/A,,Clear,0,2013-11-15 15:55:00
11:15 AM,52.9,21.2,29,30.27,10.0,Calm,Calm,-,N/A,,Clear,0,2013-11-15 16:15:00
11:35 AM,55.4,26.1,32,30.25,10.0,West,9.2,-,N/A,,Clear,260,2013-11-15 16:35:00
11:55 AM,55.9,28.0,34,30.24,10.0,WNW,4.6,-,N/A,,Clear,290,2013-11-15 16:55:00
12:15 PM,56.3,32.2,40,30.24,10.0,SW,8.1,-,N/A,,Clear,220,2013-11-15 17:15:00
12:35 PM,56.7,35.6,45,30.22,10.0,WSW,3.5,-,N/A,,Clear,240,2013-11-15 17:35:00
12:55 PM,56.7,35.1,44,30.21,10.0,SW,6.9,11.5,N/A,,Clear,220,2013-11-15 17:55:00
1:15 PM,57.2,35.1,43,30.20,10.0,West,5.8,-,N/A,,Scattered Clouds,270,2013-11-15 18:15:00
1:35 PM,56.7,35.1,44,30.20,10.0,West,4.6,-,N/A,,Mostly Cloudy,270,2013-11-15 18:35:00
1:55 PM,55.8,35.4,46,30.20,10.0,West,10.4,16.1,N/A,,Overcast,280,2013-11-15 18:55:00
2:15 PM,55.4,34.9,46,30.20,10.0,WSW,6.9,-,N/A,,Overcast,250,2013-11-15 19:15:00
2:35 PM,55.4,35.2,47,30.20,10.0,WSW,10.4,-,N/A,,Overcast,250,2013-11-15 19:35:00
2:55 PM,55.2,36.9,50,30.19,10.0,SW,6.9,-,N/A,,Overcast,230,2013-11-15 19:55:00
3:15 PM,54.5,38.1,54,30.19,10.0,SSW,5.8,-,N/A,,Overcast,210,2013-11-15 20:15:00
3:35 PM,53.4,40.5,61,30.20,10.0,SSW,4.6,-,N/A,,Overcast,200,2013-11-15 20:35:00
3:55 PM,51.8,42.4,70,30.20,7.0,SSW,6.9,-,N/A,Rain,Rain,200,2013-11-15 20:55:00
4:15 PM,50.2,44.6,81,30.20,7.0,South,3.5,-,N/A,Rain,Light Rain,190,2013-11-15 21:15:00
4:35 PM,49.1,45.7,88,30.19,4.0,South,3.5,-,N/A,Rain,Light Rain,170,2013-11-15 21:35:00
4:55 PM,48.6,46.0,91,30.19,7.0,Calm,Calm,-,N/A,,Drizzle,0,2013-11-15 21:55:00
5:15 PM,48.4,46.4,93,30.18,7.0,Calm,Calm,-,N/A,Rain,Light Rain,0,2013-11-15 22:15:00
5:35 PM,48.2,46.4,93,30.19,7.0,SSE,3.5,-,N/A,,Drizzle,150,2013-11-15 22:35:00
5:55 PM,48.2,46.4,93,30.19,4.0,SE,3.5,-,N/A,Rain,Light Rain,140,2013-11-15 22:55:00
6:15 PM,48.2,46.4,93,30.18,5.0,SE,3.5,-,0.01,Rain,Light Rain,140,2013-11-15 23:15:00
6:35 PM,48.4,46.6,93,30.18,10.0,SSE,3.5,-,0.01,Rain,Rain,150,2013-11-15 23:35:00
6:55 PM,48.6,46.4,92,30.18,10.0,Calm,Calm,-,0.02,Rain,Light Rain,0,2013-11-15 23:55:00
7:15 PM,48.4,46.4,93,30.17,10.0,SE,3.5,-,0.01,Rain,Light Rain,140,2013-11-16 00:15:00
7:35 PM,48.4,46.4,93,30.17,10.0,SE,4.6,-,0.01,,Drizzle,140,2013-11-16 00:35:00
7:55 PM,49.1,46.6,91,30.17,10.0,Calm,Calm,-,0.02,Rain,Light Rain,0,2013-11-16 00:55:00
8:15 PM,48.9,46.4,91,30.18,10.0,SE,4.6,-,0.01,Rain,Light Rain,140,2013-11-16 01:15:00
8:35 PM,48.6,46.6,93,30.18,10.0,SE,4.6,-,0.03,Rain,Rain,140,2013-11-16 01:35:00
8:55 PM,49.1,46.9,92,30.19,10.0,Calm,Calm,-,0.04,Rain,Rain,0,2013-11-16 01:55:00
9:15 PM,47.7,46.0,94,30.19,0.2,Calm,Calm,-,0.02,Rain,Light Rain,0,2013-11-16 02:15:00
9:35 PM,48.4,46.8,94,30.19,7.0,SE,3.5,-,0.02,Rain,Light Rain,140,2013-11-16 02:35:00
9:55 PM,48.6,47.1,95,30.19,10.0,Calm,Calm,-,0.03,,Overcast,0,2013-11-16 02:55:00
10:15 PM,48.6,46.9,94,30.19,5.0,Calm,Calm,-,N/A,,Overcast,0,2013-11-16 03:15:00
10:35 PM,48.4,46.8,94,30.19,2.0,SE,5.8,-,N/A,,Overcast,140,2013-11-16 03:35:00
10:55 PM,48.6,47.1,95,30.19,7.0,SSE,4.6,-,N/A,,Light Drizzle,150,2013-11-16 03:55:00
11:15 PM,50.2,47.3,90,30.19,10.0,SSE,3.5,-,N/A,,Overcast,150,2013-11-16 04:15:00
11:35 PM,50.7,47.5,89,30.19,10.0,SE,4.6,-,N/A,,Overcast,140,2013-11-16 04:35:00
11:55 PM,50.4,47.5,90,30.19,10.0,SSE,4.6,-,N/A,,Overcast,150,2013-11-16 04:55:00